Colemans, Ontario

3:22 PM EST on January 22, 2017 (GMT -0500)
Colemans

Weather History for 71262 - September, 2013

Change the Weather History Date:

Saturday, September 21, 2013

  Actual Average Record
Temperature  
Mean Temperature 60 °F -  
Max Temperature 62 °F 60 °F - ()
Min Temperature 55 °F 47 °F - ()
Degree Days  
Heating Degree Days 6    
Growing Degree Days 10 (Base 50)    
Moisture  
Dew Point 58 °F    
Average Humidity 94    
Maximum Humidity 100    
Minimum Humidity 82    
Precipitation  
Precipitation 0.00 in 0.10 in - ()
Sea Level Pressure  
Sea Level Pressure 29.66 in    
Wind  
Wind Speed 6 mph ()    
Max Wind Speed 18 mph    
Max Gust Speed 28 mph    
Visibility 6.6 miles    
Events Rain    
T = Trace of Precipitation, MM = Missing Value Source: Averaged Metar Reports

Daily Weather History Graph

Daily Weather History Graph

Search for Another Location

Airport or City:

Trip Planner

Search our weather history database for the weather conditions in past years. The results will help you decide how hot, cold, wet, or windy it might be!

Date:

Astronomy

Sep. 21, 2013 Rise Set
Actual Time 7:03 AM EDT 7:15 PM EDT
Civil Twilight 6:34 AM EDT 7:43 PM EDT
Nautical Twilight 6:01 AM EDT 8:17 PM EDT
Astronomical Twilight 5:27 AM EDT 8:51 PM EDT
Moon 8:19 PM EDT (9/21) 9:24 AM EDT (9/21)
Length of Visible Light 13h 09m
Length of Day
12h 12m
Waning Gibbous, 94% of the Moon is Illuminated
Sep 21
Waning Gibbous
Sep 26
Last Quarter
Oct 4
New
Oct 11
First Quarter
Oct 18
Full

Hourly Weather History & Observations

Time (EDT) Temp. Dew Point Humidity Pressure Visibility Wind Dir Wind Speed Gust Speed Precip Events Conditions
7:00 AM 62.6 °F 62.6 °F 100% 29.68 in 4.0 mi NW 3.5 mph - N/A Rain Light Rain
8:00 AM 62.6 °F 62.6 °F 100% 29.65 in 6.0 mi ESE 6.9 mph - N/A Rain Light Rain
9:00 AM 62.6 °F 62.6 °F 100% 29.67 in 5.0 mi South 4.6 mph - N/A Rain Light Rain
10:00 AM 62.6 °F 60.8 °F 94% 29.70 in 5.0 mi South 3.5 mph - N/A Rain Light Rain
11:00 AM 62.6 °F 60.8 °F 94% 29.69 in 7.0 mi SSW 6.9 mph - N/A Rain Light Rain
12:00 PM 62.6 °F 60.8 °F 94% 29.68 in 8.0 mi South 8.1 mph - N/A Rain Light Rain
1:00 PM 62.6 °F 60.8 °F 94% 29.68 in 8.0 mi SW 5.8 mph - N/A Rain Light Rain
2:00 PM 60.8 °F 59.0 °F 94% 29.65 in 6.0 mi South 8.1 mph - N/A Rain Light Rain
3:00 PM 62.6 °F 60.8 °F 94% 29.63 in 8.0 mi SSE 9.2 mph - N/A Rain Light Rain
4:00 PM 60.8 °F 59.0 °F 94% 29.63 in 5.0 mi South 6.9 mph - N/A Rain Light Rain
4:48 PM 60.8 °F 59.0 °F 94% 29.63 in 6.0 mi South 2.3 mph - N/A Rain Light Rain
5:00 PM 60.8 °F 59.0 °F 94% 29.63 in 6.0 mi South 2.3 mph - N/A Rain Light Rain
6:00 PM 60.8 °F 59.0 °F 94% 29.62 in 3.0 mi SE 6.9 mph - N/A Rain Light Rain
6:29 PM 60.8 °F 59.0 °F 94% 29.62 in 3.0 mi SE 4.6 mph - N/A Rain Light Rain
6:38 PM 59.0 °F 59.0 °F 100% 29.63 in 2.0 mi Variable 15.0 mph 26.5 mph N/A Rain Rain Showers
7:00 PM 57.2 °F 55.4 °F 94% 29.66 in 2.0 mi NW 18.4 mph 27.6 mph N/A Rain Rain Showers
7:10 PM 57.2 °F 55.4 °F 94% 29.67 in 2.0 mi NW 15.0 mph 25.3 mph N/A Rain Light Rain Showers
7:37 PM 57.2 °F 55.4 °F 94% 29.69 in 7.0 mi WNW 11.5 mph 19.6 mph N/A Rain Light Rain Showers
8:00 PM 57.2 °F 53.6 °F 88% 29.70 in 15.0 mi NW 12.7 mph - N/A Rain Light Rain Showers
8:31 PM 57.2 °F 51.8 °F 82% 29.71 in 15.0 mi NW 10.4 mph - N/A   Mostly Cloudy
9:00 PM 55.4 °F 51.8 °F 88% 29.72 in 15.0 mi NW 8.1 mph - N/A   Mostly Cloudy